Detroit, MI

6:43 PM EDT on April 25, 2017 (GMT -0400)
Detroit City

Weather History for KDET - January, 2013

Change the Weather History Date:

Wednesday, January 23, 2013

  Actual Average Record
Temperature  
Mean Temperature 11 °F -  
Max Temperature 17 °F 35 °F 61 °F (1967)
Min Temperature 5 °F 21 °F -12 °F (1963)
Degree Days  
Heating Degree Days 54    
Moisture  
Dew Point 3 °F    
Average Humidity 68    
Maximum Humidity 84    
Minimum Humidity 51    
Precipitation  
Precipitation 0.00 in - - ()
Sea Level Pressure  
Sea Level Pressure 30.20 in    
Wind  
Wind Speed 8 mph (WSW)    
Max Wind Speed 14 mph    
Max Gust Speed 17 mph    
Visibility 8 miles    
Events Snow    
Averages and records for this station are not official NWS values.
T = Trace of Precipitation, MM = Missing Value Source: NWS Daily Summary

Daily Weather History Graph

Daily Weather History Graph

Search for Another Location

Airport or City:

Trip Planner

Search our weather history database for the weather conditions in past years. The results will help you decide how hot, cold, wet, or windy it might be!

Date:

Astronomy

Jan. 23, 2013 Rise Set
Actual Time 7:53 AM EST 5:34 PM EST
Civil Twilight 7:23 AM EST 6:05 PM EST
Nautical Twilight 6:49 AM EST 6:39 PM EST
Astronomical Twilight 6:15 AM EST 7:12 PM EST
Moon 2:43 PM EST (1/23) 5:05 AM EST (1/23)
Length of Visible Light 10h 42m
Length of Day
9h 41m
Waxing Gibbous, 89% of the Moon is Illuminated
Jan 23
Waxing Gibbous
Jan 26
Full
Feb 3
Last Quarter
Feb 10
New
Feb 17
First Quarter

Hourly Weather History & Observations

Time (EST) Temp. Windchill Dew Point Humidity Pressure Visibility Wind Dir Wind Speed Gust Speed Precip Events Conditions
12:53 AM 8.1 °F -4.3 °F -2.0 °F 64% 30.31 in 10.0 mi WNW 8.1 mph - N/A   Overcast
1:53 AM 7.0 °F -5.7 °F -2.9 °F 64% 30.31 in 10.0 mi WNW 8.1 mph - N/A   Overcast
2:53 AM 7.0 °F -3.3 °F -5.1 °F 58% 30.31 in 10.0 mi West 5.8 mph - N/A   Mostly Cloudy
3:53 AM 7.0 °F -5.7 °F -5.1 °F 58% 30.31 in 10.0 mi West 8.1 mph - N/A   Overcast
4:53 AM 6.1 °F -2.8 °F -4.0 °F 63% 30.30 in 10.0 mi West 4.6 mph - N/A   Clear
5:53 AM 6.1 °F -5.6 °F -2.9 °F 67% 30.30 in 10.0 mi West 6.9 mph - N/A   Clear
6:53 AM 6.1 °F -4.3 °F -2.0 °F 69% 30.30 in 10.0 mi West 5.8 mph - N/A   Clear
7:53 AM 5.0 °F -6.9 °F -0.9 °F 76% 30.30 in 10.0 mi WSW 6.9 mph - N/A   Clear
8:53 AM 7.0 °F -5.7 °F -0.9 °F 70% 30.30 in 10.0 mi WSW 8.1 mph - N/A   Mostly Cloudy
9:53 AM 9.0 °F -4.2 °F -2.9 °F 59% 30.30 in 10.0 mi WSW 9.2 mph - N/A   Overcast
10:53 AM 12.0 °F -1.3 °F -2.9 °F 51% 30.29 in 10.0 mi SW 10.4 mph - N/A   Mostly Cloudy
11:53 AM 12.9 °F -0.9 °F 1.0 °F 59% 30.27 in 9.0 mi WSW 11.5 mph - N/A   Overcast
12:53 PM 15.1 °F 1.8 °F 3.9 °F 61% 30.17 in 10.0 mi SSW 11.5 mph - N/A   Overcast
1:00 PM 14.0 °F 1.2 °F 3.2 °F 62% 30.17 in 8.0 mi WSW 10.4 mph - N/A   Overcast
1:24 PM 14.0 °F -0.2 °F 6.8 °F 73% 30.15 in 5.0 mi SW 12.7 mph - 0.00 in Snow Light Snow
1:53 PM 16.0 °F 2.9 °F 7.0 °F 68% 30.14 in 5.0 mi SW 11.5 mph - 0.00 in Snow Light Snow
2:43 PM 15.8 °F 2.7 °F 6.8 °F 68% 30.12 in 6.0 mi SW 11.5 mph - 0.00 in   Haze
2:53 PM 16.0 °F 2.9 °F 8.1 °F 71% 30.12 in 5.0 mi SW 11.5 mph - 0.00 in Snow Light Snow
3:23 PM 17.6 °F 5.0 °F 8.6 °F 68% 30.11 in 4.0 mi SW 11.5 mph - 0.00 in Snow Light Snow
3:53 PM 17.1 °F 3.0 °F 10.0 °F 74% 30.10 in 6.0 mi SSW 13.8 mph - 0.00 in   Haze
4:53 PM 17.1 °F 5.8 °F 7.0 °F 65% 30.09 in 9.0 mi WSW 9.2 mph 17.3 mph 0.00 in   Overcast
5:53 PM 16.0 °F 3.6 °F 6.1 °F 65% 30.12 in 10.0 mi WSW 10.4 mph - N/A   Overcast
6:53 PM 16.0 °F 3.6 °F 6.1 °F 65% 30.13 in 10.0 mi WSW 10.4 mph - N/A   Overcast
7:53 PM 16.0 °F 4.4 °F 6.1 °F 65% 30.12 in 10.0 mi WSW 9.2 mph - N/A   Overcast
8:53 PM 15.1 °F 3.3 °F 8.1 °F 74% 30.12 in 9.0 mi WSW 9.2 mph - N/A   Overcast
9:53 PM 15.1 °F 6.4 °F 10.0 °F 80% 30.08 in 10.0 mi WSW 5.8 mph - N/A   Overcast
10:53 PM 15.1 °F 7.7 °F 10.0 °F 80% 30.12 in 6.0 mi West 4.6 mph - N/A   Haze
11:49 PM 15.8 °F 8.6 °F 10.4 °F 79% 30.09 in 3.0 mi NW 4.6 mph - 0.00 in Snow Light Snow
11:53 PM 15.1 °F 9.4 °F 10.9 °F 84% 30.13 in 4.0 mi WNW 3.5 mph - 0.00 in Snow Light Snow